Temperature
11 11 11 11 11 11 11 11 11 11 11 11 11 11 11 11 11 11 11 11 11 11 11 11 11 11 11 10 10 10 10 10 11 11 11 10 10 11 11 11 10 10 10
10 10 10 10 10 10 11 11 10 11 11 11 11 11 11 11 11 11 11 11 11 11 11 11 11 11 10 10 10 10 10 10 10 10 10 10 10 10 10 10 10 10 10
10 10 10 10 10 10 10 10 10 10 10 10 10 11 11 11 11 11 10 10 10 10 10 10 10 10 10 10 10 10 10 10 9 9 9 10 10 10 10 10 9 9 9
9 10 10 10 10 10 10 9 10 10 10 10 10 10 10 10 10 10 10 10 10 10 10 10 10 10 10 9 9 9 9 9 9 9 9 9 9 9 9 9 9 9 9
9 9 9 9 9 9 9 9 9 9 9 9 9 10 10 10 10 10 10 9 9 9 9 9 9 9 9 9 9 9 9 9 9 9 9 9 9 9 9 9 9 8 8
9 9 9 9 9 9 9 9 9 9 9 9 9 9 9 9 9 9 9 9 9 9 9 9 9 9 9 9 9 8 8 8 8 8 8 8 8 8 8 8 8 8 8
8 8 8 8 8 8 8 8 8 8 8 8 8 8 8 8 8 8 8 8 8 8 8 8 8 8 8 8 8 8 8 8 8 8 8 8 8 8 7 7 7 7 7
8 8 8 8 8 8 8 8 8 8 8 8 8 8 7 7 7 8 8 8 8 8 8 8 8 8 8 8 8 8 8 7 7 7 7 7 7 7 7 7 7 7 7
8 8 7 8 8 8 8 8 7 8 8 8 8 7 7 7 7 7 7 7 7 7 7 7 7 7 7 7 7 7 7 7 7 7 7 7 6 6 6 6 6 6 6
7 7 7 7 7 7 7 7 7 7 7 7 7 7 7 7 7 6 6 7 6 7 7 7 7 7 7 7 7 7 6 6 6 6 6 6 6 6 6 6 6 6 6
7 7 7 7 7 7 7 7 7 7 7 7 7 7 7 7 7 6 6 6 6 6 6 6 6 6 6 6 6 6 6 6 6 6 6 6 5 5 5 5 5 5 6
7 7 7 7 7 7 7 6 7 7 7 7 6 6 6 6 6 6 6 6 6 6 6 6 6 5 5 5 5 5 5 5 5 5 5 5 5 5 5 5 5 5 5
6 6 6 6 6 6 6 6 6 6 6 6 6 6 6 6 6 6 6 6 5 5 5 5 5 5 5 5 5 5 5 5 5 5 5 5 5 5 5 5 5 5 5
6 6 6 6 6 6 6 6 6 6 6 6 5 5 5 6 6 6 6 5 5 5 5 5 5 5 5 4 4 4 4 4 4 4 4 4 4 4 4 4 4 4 4
6 6 6 6 6 6 5 5 5 5 5 5 5 5 5 5 5 5 5 5 5 4 4 4 4 4 4 4 4 4 4 4 4 4 4 4 4 4 4 4 3 3 3
5 5 5 5 5 5 5 5 5 5 5 5 5 5 5 5 5 5 4 4 4 4 4 4 4 4 4 4 3 3 3 3 3 3 3 3 3 3 3 3 3 3 3
5 5 5 5 5 5 5 5 5 5 4 4 4 4 4 4 4 4 4 4 4 4 4 4 4 3 3 3 3 3 3 3 3 3 3 3 3 2 2 2 2 2 2
5 5 5 5 5 4 4 4 4 4 4 4 4 4 4 4 4 4 3 3 3 3 3 3 3 3 3 3 3 3 2 2 2 2 2 2 2 2 2 2 2 2 2
5 4 4 4 4 4 4 4 4 4 4 4 4 3 3 3 3 3 3 3 3 3 3 2 2 2 2 2 2 2 2 2 2 2 2 1 1 1 1 1 1 1 1
4 4 4 4 4 4 4 4 4 3 3 3 3 3 3 3 3 3 3 3 2 2 2 2 2 2 2 2 1 1 1 1 1 1 1 1 1 1 1 1 1 1 1
4 4 4 4 4 3 3 3 3 3 3 3 3 3 2 2 2 2 2 2 2 2 2 1 1 1 1 1 1 1 0 0 0 0 1 1 1 1 1 1 1 1 0
4 3 3 3 3 3 3 3 3 2 2 2 2 2 2 2 2 2 2 2 1 1 1 1 1 1 1 0 0 -0 -0 -0 -0 -0 -0 0 0 0 0 0 0 0 -0
3 3 3 3 3 3 2 2 2 2 2 2 2 2 2 1 1 1 1 1 1 1 0 0 0 0 0 0 -0 -0 -1 -1 -1 -1 -1 -0 -0 0 0 0 -0 -0 -0
3 3 3 3 2 2 2 2 2 2 2 2 1 1 1 1 1 1 1 0 0 0 -0 -0 -0 -0 -0 -1 -1 -1 -1 -1 -1 -1 -1 -1 -1 -0 -0 -0 -0 -0 -1
2 2 2 2 2 2 2 1 1 1 1 1 1 1 1 1 0 -0 -0 -0 -0 -0 -0 -1 -1 -1 -1 -1 -1 -2 -2 -2 -2 -2 -2 -2 -2 -1 -0 -0 -0 -1 -1
2 2 2 2 1 1 1 1 1 1 1 1 1 0 0 0 -0 -1 -1 -1 -1 -1 -1 -1 -1 -1 -1 -2 -2 -2 -2 -2 -2 -2 -2 -3 -2 -3 -2 -1 -1 -1 -1
Wind_Speed
1 1 1 2 3 3 4 3 3 3 3 3 3 4 3 4 4 5 5 6 8 8 8 8 8 8 8 7 7 7 7 7 8 8 7 7 7 6 6 6 6 6 6
2 1 1 2 2 3 4 4 4 3 2 3 2 3 3 4 5 5 5 5 7 7 8 8 8 8 7 7 7 6 7 7 7 7 7 7 6 6 5 5 5 5 5
3 2 2 1 2 3 4 4 3 4 2 2 2 2 3 4 5 5 5 5 6 6 7 7 8 8 7 7 7 6 6 7 6 6 6 5 5 4 4 4 4 3 3
4 4 2 2 2 3 3 3 3 2 2 2 1 1 2 3 4 5 5 6 6 5 6 7 8 8 7 7 6 6 6 6 5 5 4 4 4 3 3 3 3 2 2
4 4 3 2 3 3 2 3 2 3 3 3 2 1 1 2 3 5 5 5 6 6 6 6 7 7 7 6 6 5 5 5 4 4 3 3 2 2 2 2 2 2 2
3 3 2 3 4 3 2 3 3 2 2 3 3 3 2 2 2 3 4 5 5 5 6 6 6 5 5 6 5 5 4 4 3 3 3 3 2 2 2 1 2 2 2
3 3 2 2 3 3 3 4 3 3 2 3 3 3 3 3 2 2 3 4 4 5 6 5 4 4 3 4 4 4 3 3 2 3 3 3 3 3 3 3 3 3 3
2 3 3 2 2 3 3 4 4 2 1 2 2 3 1 1 2 1 1 3 3 4 4 4 4 3 3 3 3 3 3 2 2 2 3 4 5 5 5 6 5 4 4
2 2 3 3 3 3 4 5 5 4 3 1 1 3 3 3 1 1 0 1 2 2 2 3 3 3 3 2 2 2 2 2 3 3 4 5 5 6 7 7 7 6 6
2 3 3 3 3 3 4 5 4 4 5 3 1 1 1 3 3 1 1 0 1 2 2 2 2 2 2 3 2 2 3 3 4 5 6 6 6 7 7 7 8 8 8
1 2 2 3 3 2 3 4 4 4 4 4 3 2 1 1 1 2 2 1 1 1 2 2 2 2 3 3 3 3 4 5 6 7 7 7 7 8 8 9 9 9 9
1 1 2 2 2 3 3 4 4 4 4 4 3 3 3 2 3 2 2 2 2 2 1 2 3 3 4 4 4 5 5 6 7 8 8 8 8 9 9 10 9 9 9
2 2 2 2 2 3 3 4 4 4 4 4 4 3 2 2 2 2 2 2 2 2 1 1 2 4 4 4 5 5 6 7 8 9 9 9 9 9 10 10 10 10 9
3 3 3 3 3 3 3 3 3 3 3 4 4 3 2 2 2 2 3 3 1 1 2 3 1 4 5 5 6 6 6 7 8 9 9 9 9 10 10 11 11 10 11
3 3 3 3 3 3 4 4 3 3 4 4 4 4 2 2 2 2 2 3 4 3 4 4 2 3 5 6 7 6 6 8 9 9 10 10 10 10 10 10 10 10 11
3 3 3 3 3 3 3 4 3 3 4 4 3 4 3 2 2 2 2 2 2 3 4 4 4 3 4 5 6 6 7 8 9 9 10 10 10 10 10 11 10 11 11
4 4 4 4 4 3 3 4 4 4 5 4 4 4 4 3 2 2 2 2 2 2 3 3 2 2 2 3 4 6 6 7 8 9 10 10 10 11 11 11 12 12 12
4 4 4 4 4 3 3 4 5 5 5 5 4 4 4 3 3 2 2 2 2 2 3 3 2 2 2 3 4 4 5 6 7 9 10 11 11 12 12 13 13 13 13
4 3 4 4 4 4 4 4 4 5 5 5 5 5 4 4 4 3 3 3 3 2 2 2 3 2 1 2 2 3 4 5 7 8 10 11 12 12 12 13 13 13 14
4 4 4 4 4 4 4 4 4 4 4 4 4 4 5 5 5 5 4 4 3 2 2 2 2 2 2 2 2 3 4 3 4 6 9 11 12 13 13 13 14 14 14
4 4 4 4 3 3 4 4 4 4 4 4 4 4 4 5 5 5 4 4 4 3 2 2 2 2 2 2 3 2 4 4 5 4 4 6 8 9 10 13 13 14 14
3 3 4 4 4 3 4 5 4 4 3 4 4 3 3 4 4 5 5 5 5 4 4 3 3 3 4 4 3 3 3 4 5 3 3 6 5 6 8 10 13 14 14
3 3 3 4 4 5 5 5 5 3 3 3 4 3 3 3 4 4 4 4 4 6 6 5 5 6 5 5 4 4 4 5 6 4 3 6 4 6 8 11 14 14 14
3 3 3 4 4 5 6 6 5 3 3 3 3 4 4 3 4 4 4 4 4 4 5 4 5 5 5 4 5 5 5 4 4 4 3 5 4 5 6 9 13 13 13
3 3 3 4 4 4 5 6 5 3 3 3 3 3 4 4 5 5 4 4 4 4 4 5 6 6 6 5 4 1 2 3 5 4 2 2 3 4 5 4 9 11 11
3 3 3 4 4 4 5 5 5 3 3 2 2 3 4 4 5 5 4 4 4 4 3 2 3 3 3 4 4 3 4 4 4 3 2 2 3 2 4 3 4 7 8
Wind_Direction
123 123 143 146 147 146 140 128 124 118 116 114 119 122 119 123 129 130 132 144 148 150 152 149 147 146 142 136 127 127 131 135 134 129 122 115 110 112 107 101 98 98 93
164 148 146 152 158 158 156 148 144 141 138 120 110 118 119 121 130 132 127 133 143 148 151 151 149 147 145 142 136 130 131 127 126 126 127 122 116 111 111 104 97 97 95
167 157 165 165 170 161 149 137 133 128 131 115 108 114 116 117 121 126 128 124 128 138 145 144 145 143 142 141 136 132 132 128 126 127 129 133 134 125 126 123 114 113 116
169 154 155 174 167 145 138 146 151 139 131 120 110 106 108 112 114 120 120 123 121 125 134 137 141 142 141 139 134 130 127 129 131 133 133 132 138 144 146 155 151 141 149
170 156 158 165 150 130 138 162 156 148 141 128 118 83 86 110 119 117 111 115 119 118 119 127 133 136 140 140 138 137 136 135 138 143 148 149 151 162 174 191 187 186 202
178 161 153 155 148 138 144 139 140 129 141 139 113 72 47 66 103 118 121 114 112 116 116 116 119 125 139 141 141 144 146 152 157 169 175 183 199 208 211 239 231 223 227
173 157 155 161 159 158 155 139 135 130 120 120 104 80 42 40 59 82 108 109 103 106 111 114 113 113 129 148 152 154 155 165 185 204 208 213 222 229 239 250 257 243 243
176 171 160 180 166 148 144 146 142 142 135 134 135 124 96 30 27 32 93 117 113 106 106 116 123 125 134 135 150 167 180 191 221 247 238 236 239 245 251 251 255 255 255
175 173 172 174 171 166 167 164 160 159 169 180 148 144 155 191 182 344 47 114 124 130 129 127 128 135 144 142 155 180 203 225 247 262 266 252 253 257 257 260 260 263 259
180 175 175 170 179 180 175 178 172 163 163 180 178 106 139 149 153 167 298 313 152 160 168 148 152 156 169 172 192 223 236 251 260 268 272 266 258 259 264 268 270 273 269
198 185 181 178 183 184 184 184 170 167 171 175 176 159 110 87 131 162 197 229 282 236 197 185 180 186 199 204 218 236 244 253 263 269 270 273 267 265 267 268 272 272 277
230 217 196 193 197 192 188 187 176 174 176 172 176 175 170 177 181 165 186 203 230 263 249 214 196 202 207 217 229 242 249 255 265 270 273 274 276 275 273 272 274 275 280
230 229 225 208 209 205 194 180 170 178 178 176 185 195 192 199 182 169 170 190 227 264 266 256 221 205 214 221 234 242 249 260 267 271 274 276 279 284 282 278 275 277 277
223 216 214 213 210 204 198 182 171 179 174 175 184 192 192 204 180 177 178 172 190 266 259 251 254 221 220 225 238 244 249 261 267 274 277 279 282 283 281 281 279 275 274
210 206 208 208 210 200 195 183 183 182 173 181 183 184 194 205 193 186 185 183 178 216 243 237 231 234 231 232 241 243 251 260 265 271 275 279 278 277 278 276 274 274 276
202 198 208 207 204 195 190 180 184 185 179 192 189 182 193 202 204 190 192 197 190 196 234 231 229 246 235 243 251 252 253 263 266 268 271 277 276 274 272 269 269 270 275
197 196 203 202 199 196 194 188 192 184 187 195 196 189 199 193 200 206 194 193 195 190 233 264 254 258 232 239 260 256 258 258 262 266 270 274 277 273 271 270 268 269 272
199 199 197 196 197 198 199 193 193 192 189 194 197 191 205 200 199 200 194 198 207 206 212 246 267 261 256 248 243 251 265 266 267 270 273 276 276 273 271 270 270 269 270
197 198 193 196 202 202 199 200 196 196 196 200 199 199 205 194 207 211 205 204 210 220 208 222 257 272 282 276 266 275 276 273 274 273 277 278 276 274 273 272 271 270 270
194 197 201 204 205 203 201 199 199 198 198 202 202 204 207 206 207 204 209 210 205 205 201 208 255 279 280 281 257 278 291 284 284 281 279 278 279 279 276 275 273 270 268
197 194 195 201 203 205 205 197 199 200 201 204 204 207 213 214 216 211 215 208 196 202 210 224 251 273 276 281 263 266 279 294 286 267 269 271 274 274 273 273 270 269 268
191 190 197 197 199 216 216 207 205 201 203 204 207 211 216 219 223 225 231 227 213 210 216 227 248 255 260 259 262 271 278 293 286 261 266 279 264 267 265 266 268 269 270
190 196 203 199 207 217 214 213 208 197 201 208 207 207 221 223 224 214 229 239 239 244 237 226 233 245 247 244 242 261 264 272 277 277 277 280 279 273 270 270 272 270 271
197 206 211 208 209 218 214 212 207 197 195 205 210 208 209 222 223 214 208 220 234 245 246 240 232 240 244 237 233 244 257 275 289 278 253 270 279 278 285 277 271 269 272
206 212 209 203 206 217 212 208 203 192 197 213 216 212 211 218 232 230 215 217 234 253 263 257 266 271 274 271 263 256 272 284 289 281 239 243 273 295 289 274 271 274 277
208 204 205 203 204 213 211 206 199 184 195 214 224 224 229 230 235 232 218 214 232 247 248 274 291 293 289 273 258 237 232 257 282 274 235 245 275 304 297 284 281 282 282
Height
1521 1522 1523 1524 1525 1526 1527 1528 1529 1530 1532 1533 1535 1536 1537 1539 1541 1542 1543 1544 1545 1546 1547 1548 1549 1550 1550 1551 1552 1552 1553 1553 1554 1554 1554 1555 1555 1555 1556 1556 1555 1555 1555
1519 1520 1520 1522 1522 1523 1524 1525 1527 1528 1529 1531 1533 1534 1535 1537 1539 1540 1542 1543 1544 1545 1546 1547 1548 1549 1549 1550 1551 1551 1552 1552 1552 1553 1553 1554 1554 1554 1554 1554 1554 1554 1554
1517 1517 1518 1519 1520 1521 1522 1523 1524 1526 1527 1529 1530 1532 1533 1535 1537 1538 1540 1541 1542 1544 1545 1545 1546 1547 1548 1549 1549 1550 1550 1551 1551 1551 1552 1552 1552 1553 1553 1553 1553 1553 1553
1515 1515 1516 1517 1518 1518 1520 1521 1522 1524 1525 1526 1528 1529 1531 1533 1534 1536 1538 1539 1540 1542 1543 1544 1545 1546 1546 1547 1548 1548 1548 1549 1549 1550 1550 1550 1551 1551 1551 1551 1551 1551 1551
1512 1512 1513 1514 1515 1516 1517 1518 1520 1521 1523 1524 1526 1527 1529 1530 1532 1534 1535 1537 1538 1540 1541 1542 1543 1544 1545 1545 1546 1546 1547 1547 1547 1548 1548 1548 1549 1549 1549 1549 1549 1549 1549
1509 1510 1510 1511 1512 1513 1514 1515 1517 1519 1520 1522 1523 1525 1527 1528 1530 1531 1533 1535 1536 1538 1539 1540 1541 1542 1543 1544 1544 1544 1545 1545 1545 1546 1546 1546 1546 1547 1547 1547 1547 1547 1547
1506 1507 1508 1509 1509 1510 1511 1513 1514 1516 1517 1519 1521 1522 1524 1526 1527 1529 1531 1532 1534 1535 1537 1538 1538 1539 1540 1541 1542 1542 1543 1543 1543 1543 1544 1544 1544 1544 1544 1544 1544 1544 1544
1504 1505 1505 1506 1507 1508 1509 1510 1512 1513 1514 1517 1519 1520 1521 1525 1524 1526 1528 1530 1531 1533 1534 1535 1536 1537 1538 1538 1539 1540 1540 1540 1541 1541 1541 1541 1541 1541 1541 1541 1541 1542 1541
1502 1503 1503 1504 1504 1506 1507 1508 1509 1511 1512 1515 1517 1517 1519 1519 1521 1524 1525 1526 1528 1529 1531 1532 1533 1534 1534 1535 1536 1536 1537 1537 1537 1537 1537 1538 1538 1538 1538 1538 1538 1538 1538
1500 1501 1501 1501 1502 1503 1504 1505 1507 1508 1510 1511 1513 1514 1517 1517 1519 1520 1522 1523 1525 1526 1528 1529 1530 1531 1531 1532 1533 1533 1533 1534 1534 1534 1534 1534 1534 1534 1534 1535 1534 1534 1534
1498 1498 1499 1499 1500 1501 1502 1503 1504 1505 1507 1508 1510 1511 1513 1514 1515 1516 1517 1519 1521 1523 1524 1525 1526 1527 1528 1529 1529 1530 1530 1530 1530 1530 1530 1530 1530 1530 1530 1530 1530 1530 1530
1495 1496 1496 1497 1497 1498 1499 1500 1501 1503 1504 1506 1507 1509 1510 1512 1512 1514 1514 1515 1517 1518 1520 1522 1523 1524 1524 1525 1525 1526 1526 1526 1526 1526 1526 1526 1526 1526 1526 1526 1525 1525 1524
1492 1493 1494 1494 1495 1495 1496 1497 1498 1499 1501 1502 1504 1506 1508 1509 1510 1511 1512 1512 1513 1514 1516 1518 1519 1520 1521 1521 1521 1521 1522 1522 1521 1521 1521 1521 1521 1521 1521 1520 1520 1519 1519
1490 1491 1491 1492 1492 1493 1493 1494 1495 1496 1498 1499 1500 1502 1504 1506 1507 1508 1509 1510 1509 1510 1511 1513 1514 1515 1516 1517 1517 1517 1517 1517 1517 1516 1516 1516 1516 1516 1515 1515 1515 1514 1513
1487 1488 1488 1489 1489 1489 1490 1491 1492 1493 1494 1496 1497 1499 1500 1502 1503 1504 1506 1507 1507 1506 1507 1508 1509 1510 1511 1512 1512 1512 1512 1512 1512 1511 1511 1511 1511 1510 1510 1509 1509 1509 1508
1484 1484 1485 1485 1486 1486 1487 1488 1489 1490 1491 1492 1494 1495 1497 1498 1500 1501 1502 1503 1503 1504 1503 1504 1505 1506 1506 1507 1507 1507 1507 1507 1507 1506 1506 1506 1505 1505 1504 1504 1503 1503 1502
1480 1481 1482 1482 1482 1483 1484 1484 1485 1487 1488 1489 1490 1491 1493 1494 1496 1497 1498 1499 1499 1500 1499 1499 1501 1501 1501 1501 1502 1502 1502 1501 1501 1501 1501 1500 1499 1499 1498 1498 1497 1497 1496
1477 1478 1478 1479 1479 1480 1480 1481 1482 1483 1484 1485 1486 1488 1489 1490 1492 1493 1494 1494 1495 1496 1496 1495 1496 1496 1497 1497 1497 1497 1497 1496 1496 1496 1495 1494 1494 1493 1492 1491 1491 1490 1490
1473 1474 1475 1475 1476 1477 1477 1478 1479 1479 1480 1481 1483 1484 1485 1486 1487 1488 1489 1490 1491 1492 1492 1492 1491 1492 1492 1492 1492 1492 1491 1491 1491 1490 1490 1489 1488 1487 1486 1485 1484 1484 1483
1470 1471 1472 1472 1473 1474 1474 1475 1475 1476 1477 1478 1479 1481 1482 1483 1483 1484 1485 1486 1487 1487 1487 1487 1487 1487 1487 1487 1487 1486 1485 1485 1485 1485 1484 1483 1482 1481 1480 1479 1478 1477 1477
1467 1468 1468 1469 1470 1470 1471 1472 1472 1473 1474 1474 1476 1477 1478 1479 1479 1480 1481 1482 1482 1482 1483 1483 1482 1482 1482 1482 1482 1481 1481 1480 1479 1479 1478 1477 1476 1474 1473 1472 1471 1471 1470
1463 1464 1464 1465 1466 1467 1468 1469 1469 1470 1470 1471 1472 1473 1474 1475 1475 1476 1477 1478 1478 1478 1478 1478 1478 1478 1478 1478 1478 1477 1476 1475 1473 1473 1472 1470 1470 1468 1467 1466 1465 1464 1463
1459 1460 1461 1461 1462 1463 1464 1465 1466 1467 1467 1468 1468 1469 1470 1471 1471 1472 1472 1473 1473 1474 1475 1475 1474 1474 1473 1473 1473 1472 1471 1470 1469 1468 1467 1463 1463 1461 1461 1460 1459 1458 1457
1456 1456 1457 1458 1459 1460 1461 1462 1462 1463 1464 1464 1464 1465 1466 1466 1467 1468 1468 1468 1468 1469 1470 1470 1470 1469 1469 1469 1468 1468 1466 1465 1464 1463 1462 1459 1457 1456 1455 1454 1453 1452 1451
1452 1452 1453 1454 1455 1456 1457 1458 1459 1459 1460 1460 1460 1461 1462 1462 1463 1463 1464 1464 1464 1464 1465 1465 1465 1465 1465 1464 1464 1463 1461 1460 1458 1457 1457 1455 1452 1450 1449 1448 1448 1447 1445
1448 1449 1449 1451 1452 1453 1454 1455 1455 1456 1456 1456 1457 1457 1458 1458 1459 1459 1459 1459 1459 1459 1460 1460 1460 1460 1460 1459 1459 1458 1457 1456 1453 1452 1451 1450 1448 1447 1444 1442 1442 1442 1440